Weather reports worldwide

Advertisment
Aboyne, United Kingdom (3080): temperature & dewpoint: 13.02.2019 13:00:00 - 19.02.2019 13:00:00 (GMT)Aboyne, United Kingdom (3080): temperature -20cm & temperature -100cm: 13.02.2019 13:00:00 - 19.02.2019 13:00:00 (GMT)Aboyne, United Kingdom (3080): wind speed & gusts: 13.02.2019 13:00:00 - 19.02.2019 13:00:00 (GMT)Aboyne, United Kingdom (3080): wind direction: 13.02.2019 13:00:00 - 19.02.2019 13:00:00 (GMT)Aboyne, United Kingdom (3080): reduced air pressure: 13.02.2019 13:00:00 - 19.02.2019 13:00:00 (GMT)Aboyne, United Kingdom (3080): visibility: 13.02.2019 13:00:00 - 19.02.2019 13:00:00 (GMT)Aboyne, United Kingdom (3080): precipitation: 13.02.2019 13:00:00 - 19.02.2019 13:00:00 (GMT)
Date & Time tt [°C] td [°C] tt -20cm [°C] tt -100cm [°C] ff [km/h] ff [kn] fx [km/h] fx [kn] dd ppp [hPa] vv [km] rr [mm]
19.02.2019 13:00:00 9,4 2,6 - - 15 8 - - W 1008,8 50 0,0
19.02.2019 12:00:00 8,8 2,1 - - 11 6 - - W 1009,0 45 0,0
19.02.2019 11:00:00 8,1 2,1 - - 9 5 - - WNW 1009,0 25 0,0
19.02.2019 10:00:00 7,4 1,4 - - 5 3 - - NW 1008,7 35 0,0
19.02.2019 09:00:00 5,6 1,0 3,7 3,7 9 5 - - WSW 1008,5 30 0,0
19.02.2019 08:00:00 4,1 0,6 - - 8 4 - - W 1008,1 45 0,0
19.02.2019 07:00:00 1,4 -0,7 - - 4 2 - - SW 1007,5 50 0,0
19.02.2019 06:00:00 4,6 0,7 - - 16 9 - - W 1006,8 50 0,0
19.02.2019 05:00:00 3,4 0,1 - - 11 6 - - WNW 1006,2 45 0,0
19.02.2019 04:00:00 5,3 0,9 - - 8 4 - - W 1005,7 50 0,0
19.02.2019 03:00:00 5,7 2,1 - - 13 7 - - NW 1005,2 50 0,0
19.02.2019 02:00:00 6,4 2,1 - - 22 12 - - NW 1004,3 50 0,0
19.02.2019 01:00:00 6,1 2,5 - - 22 12 - - W 1003,5 50 0,0
19.02.2019 00:00:00 4,9 1,6 - - 9 5 - - WNW 1002,8 50 0,0
18.02.2019 23:00:00 5,3 1,5 - - 8 4 - - W 1001,9 50 0,0
18.02.2019 22:00:00 5,7 1,8 - - 13 7 - - W 1001,1 45 0,0
18.02.2019 21:00:00 4,3 0,6 - - 9 5 - - WNW 1000,6 50 0,0
18.02.2019 20:00:00 5,8 1,8 - - 15 8 - - W 999,6 50 0,0
18.02.2019 19:00:00 6,3 1,5 - - 15 8 - - W 999,0 50 0,0
18.02.2019 18:00:00 7,0 1,7 - - 15 8 - - W 998,4 50 0,0
18.02.2019 17:00:00 7,2 1,4 - - 9 5 - - WSW 998,0 50 0,0
18.02.2019 16:00:00 7,9 3,0 - - 18 10 - - WSW 997,2 50 0,0
18.02.2019 15:00:00 7,9 2,9 - - 18 10 - - SSW 997,4 30 0,0
18.02.2019 14:00:00 8,5 2,5 - - 26 14 50 27 SW 997,5 45 0,0
18.02.2019 13:00:00 8,1 1,9 - - 26 14 46 25 SW 998,1 40 0,0
18.02.2019 12:00:00 7,8 1,8 - - 24 13 54 29 SW 998,2 40 0,0
18.02.2019 11:00:00 7,1 1,6 - - 29 16 50 27 SW 998,6 30 0,0
18.02.2019 10:00:00 7,2 0,9 - - 22 12 46 25 SW 999,3 40 0,0
18.02.2019 09:00:00 6,6 0,1 3,7 3,7 29 16 50 27 SW 998,8 25 0,0
18.02.2019 08:00:00 6,1 0,4 - - 13 7 - - SW 999,2 30 0,0
18.02.2019 07:00:00 6,7 1,5 - - 21 11 48 26 SW 999,2 45 0,0
18.02.2019 06:00:00 7,2 1,7 - - 26 14 52 28 SW 998,6 50 0,0
18.02.2019 05:00:00 7,0 2,4 - - 24 13 46 25 SW 998,8 45 0,0
18.02.2019 04:00:00 7,5 2,4 - - 24 13 50 27 WSW 999,4 30 0,0
18.02.2019 03:00:00 7,5 3,1 - - 22 12 50 27 WSW 999,6 28 0,0
18.02.2019 02:00:00 7,9 3,1 - - 22 12 46 25 WSW 1000,0 27 0,0
18.02.2019 01:00:00 7,5 3,9 - - 15 8 - - WSW 1000,6 25 0,0
18.02.2019 00:00:00 7,1 4,6 - - 13 7 - - SSW 1000,8 12 0,6
17.02.2019 23:00:00 6,2 4,0 - - 18 10 - - WSW 1001,7 7 1,2
17.02.2019 22:00:00 7,6 3,2 - - 16 9 - - SW 1001,4 14 0,0
17.02.2019 21:00:00 7,7 2,2 - - 8 4 - - SSW 1001,8 35 0,0
17.02.2019 20:00:00 8,1 2,1 - - 15 8 - - WSW 1002,3 35 0,0
17.02.2019 19:00:00 8,0 2,2 - - 21 11 - - SW 1002,4 35 0,0
17.02.2019 18:00:00 8,4 2,8 - - 22 12 - - WSW 1001,8 45 0,0
17.02.2019 17:00:00 8,3 2,3 - - 22 12 54 29 W 1001,5 45 0,0
17.02.2019 16:00:00 9,8 3,8 - - 29 16 54 29 SW 1000,4 45 0,2
17.02.2019 15:00:00 10,2 5,5 - - 22 12 50 27 SSW 999,9 29 0,0
17.02.2019 14:00:00 10,8 5,9 - - 22 12 54 29 SSW 999,7 35 0,0
17.02.2019 13:00:00 10,2 5,0 - - 15 8 50 27 S 1000,4 25 0,0
17.02.2019 12:00:00 9,5 5,0 - - 15 8 - - SSE 1001,3 27 0,0
17.02.2019 11:00:00 10,0 4,6 - - 9 5 - - S 1002,3 30 0,0
17.02.2019 10:00:00 8,9 4,8 - - 8 4 - - E 1003,2 30 0,0
17.02.2019 09:00:00 8,4 5,2 3,7 3,5 11 6 - - E 1004,1 27 0,0
17.02.2019 08:00:00 9,7 5,5 - - 9 5 - - ESE 1004,6 29 0,0
17.02.2019 07:00:00 10,2 5,7 - - 11 6 48 26 S 1005,1 21 0,0
17.02.2019 06:00:00 10,2 5,6 - - 13 7 - - SSW 1004,8 20 0,0
17.02.2019 05:00:00 10,4 6,3 - - 18 10 - - SSW 1005,5 18 0,0
17.02.2019 04:00:00 10,3 6,9 - - 18 10 - - WSW 1005,8 19 0,0
17.02.2019 03:00:00 9,0 7,0 - - 16 9 - - E 1006,1 14 0,0
17.02.2019 02:00:00 8,5 6,4 - - 15 8 - - SSE 1007,1 13 0,0
17.02.2019 01:00:00 8,4 5,4 - - 15 8 - - S 1007,6 20 0,0
17.02.2019 00:00:00 9,4 5,0 - - 21 11 - - SSW 1008,1 30 0,0
16.02.2019 23:00:00 8,2 4,0 - - 8 4 - - E 1008,9 29 0,0
16.02.2019 22:00:00 8,7 4,1 - - 9 5 - - SSE 1009,6 30 0,0
16.02.2019 21:00:00 8,5 4,5 - - 11 6 - - SSW 1010,0 30 0,0
16.02.2019 20:00:00 8,6 4,3 - - 9 5 - - S 1010,1 35 0,0
16.02.2019 19:00:00 8,1 3,7 - - 4 2 - - S 1011,0 45 0,0
16.02.2019 18:00:00 7,9 3,0 - - 5 3 - - SE 1011,3 40 0,0
16.02.2019 17:00:00 8,4 2,6 - - 11 6 - - SW 1011,3 50 0,0
16.02.2019 16:00:00 9,1 3,8 - - 11 6 - - S 1011,4 45 0,0
16.02.2019 15:00:00 9,7 3,6 - - 22 12 - - SW 1011,5 45 0,0
16.02.2019 14:00:00 10,1 5,4 - - 9 5 - - W 1011,7 35 0,0
16.02.2019 13:00:00 9,9 4,9 - - 16 9 - - SW 1011,7 45 0,0
16.02.2019 12:00:00 10,2 5,6 - - 21 11 - - WSW 1011,6 40 0,0
16.02.2019 11:00:00 9,9 5,7 - - 15 8 - - WSW 1011,3 40 0,0
16.02.2019 10:00:00 9,3 5,3 - - 9 5 - - SW 1011,0 50 0,0
16.02.2019 09:00:00 7,6 5,2 3,2 3,4 5 3 - - WSW 1011,2 50 0,0
16.02.2019 08:00:00 7,4 5,4 - - 4 2 - - NE 1010,6 45 0,0
16.02.2019 07:00:00 5,2 4,1 - - 4 2 - - E 1010,3 35 0,0
16.02.2019 06:00:00 3,8 1,8 - - 4 2 - - SSW 1009,9 45 0,0
16.02.2019 05:00:00 5,9 3,4 - - 5 3 - - WSW 1009,2 45 0,0
16.02.2019 04:00:00 8,1 4,5 - - 15 8 - - W 1008,7 50 0,0
16.02.2019 03:00:00 7,7 5,3 - - 4 2 - - WNW 1009,4 50 0,0
16.02.2019 02:00:00 9,3 5,8 - - 5 3 - - N 1008,6 30 0,0
16.02.2019 01:00:00 8,7 5,7 - - 9 5 - - WSW 1008,3 30 0,0
16.02.2019 00:00:00 9,2 6,6 - - 16 9 - - WSW 1009,3 27 0,2
15.02.2019 23:00:00 10,5 6,4 - - 15 8 - - W 1009,3 19 0,0
15.02.2019 22:00:00 10,1 5,2 - - 8 4 - - NW 1009,9 21 0,0
15.02.2019 21:00:00 10,4 5,3 - - 16 9 - - SW 1010,2 22 0,0
15.02.2019 20:00:00 10,1 4,9 - - 18 10 - - SW 1011,2 19 0,0
15.02.2019 19:00:00 10,4 4,5 - - 22 12 52 28 WSW 1012,0 26 0,0
15.02.2019 18:00:00 10,2 4,0 - - 35 19 57 31 SW 1012,2 26 0,0
15.02.2019 17:00:00 11,1 4,0 - - 29 16 55 30 WSW 1012,1 30 0,0
15.02.2019 16:00:00 11,3 3,5 - - 24 13 61 33 WSW 1012,5 30 0,0
15.02.2019 15:00:00 12,1 3,2 - - 31 17 57 31 WSW 1012,2 27 0,0
15.02.2019 14:00:00 12,2 2,2 - - 28 15 61 33 SW 1013,0 35 0,0
15.02.2019 13:00:00 12,7 1,4 - - 29 16 57 31 WSW 1014,2 30 0,0
15.02.2019 12:00:00 12,4 -0,5 - - 26 14 54 29 WSW 1015,0 26 0,0
15.02.2019 11:00:00 13,2 -4,8 - - 24 13 - - W 1015,5 50 0,0
15.02.2019 10:00:00 12,5 -8,2 - - 9 5 - - W 1016,2 30 0,0
15.02.2019 09:00:00 9,3 -7,8 3,0 3,2 9 5 - - WNW 1017,1 50 0,0
15.02.2019 08:00:00 5,5 -7,7 - - 9 5 - - W 1017,8 50 0,0
15.02.2019 07:00:00 7,5 -8,5 - - 11 6 - - W 1018,1 50 0,0
15.02.2019 06:00:00 9,5 -7,9 - - 26 14 48 26 WSW 1018,2 45 0,0
15.02.2019 05:00:00 9,8 -9,3 - - 9 5 - - W 1017,8 50 0,0
15.02.2019 04:00:00 10,3 -8,9 - - 16 9 - - WSW 1018,7 50 0,0
15.02.2019 03:00:00 11,5 -7,5 - - 26 14 46 25 SW 1019,5 50 0,0
15.02.2019 02:00:00 11,8 -6,6 - - 24 13 - - SW 1020,0 50 0,0
15.02.2019 01:00:00 12,9 -4,7 - - 21 11 - - W 1020,2 50 0,0
15.02.2019 00:00:00 8,9 0,5 - - 13 7 - - WSW 1021,1 45 0,0
14.02.2019 23:00:00 9,2 1,6 - - 18 10 - - WSW 1021,2 35 0,0
14.02.2019 22:00:00 5,6 2,1 - - 4 2 - - SE 1021,7 20 0,0
14.02.2019 21:00:00 9,7 2,4 - - 13 7 - - NW 1021,6 28 0,0
14.02.2019 20:00:00 9,4 3,0 - - 13 7 - - NW 1021,8 25 0,0
14.02.2019 19:00:00 9,2 3,6 - - 16 9 - - WNW 1022,0 25 0,0
14.02.2019 18:00:00 9,2 4,4 - - 15 8 - - WNW 1021,9 29 0,0
14.02.2019 17:00:00 10,9 4,9 - - 4 2 - - NW 1021,9 40 0,0
14.02.2019 16:00:00 11,0 6,1 - - 11 6 - - WSW 1022,0 35 0,0
14.02.2019 15:00:00 10,8 6,6 - - 16 9 - - SW 1022,5 35 0,0
14.02.2019 14:00:00 10,4 6,4 - - 13 7 - - W 1023,1 45 0,0
14.02.2019 13:00:00 10,4 6,4 - - 13 7 - - SW 1023,4 50 0,0
14.02.2019 12:00:00 10,3 6,6 - - 5 3 - - SE 1024,1 50 0,0
14.02.2019 11:00:00 10,1 6,5 - - 21 11 - - SW 1023,8 45 0,0
14.02.2019 10:00:00 9,3 6,0 - - 15 8 - - SW 1023,8 40 0,0
14.02.2019 09:00:00 8,9 5,6 2,7 3,0 15 8 - - W 1023,0 50 0,0
14.02.2019 08:00:00 9,1 5,5 - - 16 9 - - W 1022,7 50 0,0
14.02.2019 07:00:00 9,2 5,2 - - 15 8 - - W 1021,7 50 0,0
14.02.2019 06:00:00 9,8 5,4 - - 28 15 - - WSW 1021,0 50 0,0
14.02.2019 05:00:00 8,9 5,2 - - 22 12 - - WSW 1020,6 50 0,0
14.02.2019 04:00:00 9,2 5,3 - - 22 12 - - WSW 1020,7 50 0,0
14.02.2019 03:00:00 9,7 5,2 - - 24 13 - - W 1020,1 50 0,0
14.02.2019 02:00:00 9,5 5,2 - - 29 16 52 28 W 1019,4 35 0,0
14.02.2019 01:00:00 9,1 4,5 - - 35 19 65 35 W 1019,7 30 0,0
14.02.2019 00:00:00 9,5 4,2 - - 24 13 - - W 1018,6 28 0,0
13.02.2019 23:00:00 9,4 4,6 - - 22 12 54 29 W 1019,5 28 0,0
13.02.2019 22:00:00 9,5 4,7 - - 31 17 55 30 W 1018,8 30 0,0
13.02.2019 21:00:00 8,9 4,8 - - 9 5 - - WSW 1018,7 25 0,0
13.02.2019 20:00:00 9,3 4,6 - - 18 10 50 27 W 1018,6 30 0,0
13.02.2019 19:00:00 9,1 4,6 - - 26 14 - - WSW 1018,4 35 0,0
13.02.2019 18:00:00 9,2 5,1 - - 21 11 55 30 WSW 1019,1 27 0,0
13.02.2019 17:00:00 9,9 4,9 - - 31 17 59 32 WSW 1019,2 40 0,0
13.02.2019 16:00:00 9,7 5,9 - - 26 14 - - WSW 1020,0 30 0,0
13.02.2019 15:00:00 10,6 5,8 - - 11 6 - - SW 1019,6 40 0,0
13.02.2019 14:00:00 10,8 6,5 - - 13 7 - - S 1019,8 45 0,0
13.02.2019 13:00:00 11,4 6,5 - - 11 6 - - SW 1019,9 50 0,0

tt = temperature
td = dewpoint
tt -20cm = temperature -20cm
tt -100cm = temperature -100cm
ff = wind speed
fx = gusts
dd = wind direction
ppp = reduced air pressure
vv = visibility
rr = precipitation

Next stations